{"data":{"norad_id":55335,"epoch":"2026-05-24T22:47:24.663264Z","epoch_age_seconds":76471,"freshness":"FRESH","line1":"1 55335U 23013E   26144.94959101 -.00000546  00000+0 -10327-4 0  9998","line2":"2 55335  43.0008 232.9703 0001075 271.1116  88.9612 15.27567232183338","mean_motion":15.27567232,"eccentricity":0.0001075,"inclination_deg":43.0008,"raan_deg":232.9703,"arg_perigee_deg":271.1116,"mean_anomaly_deg":88.9612,"bstar":-1.0327e-5,"rev_number":18333,"period_min":94.267536631736,"perigee_km":482.34974667592,"apogee_km":483.82490990651,"semimajor_km":6861.2243282912,"source":"CELESTRAK","updated_at":"2026-05-25T13:38:17.760410Z"}}